Regional Weather Roundup
Issued by NWS

Home | Current Version | Previous Version | Graphics & Text | Print | Product List | Glossary On
Versions: 1 2 3 4 5 6 7 8 9 10 11 12 13 14 15 16 17 18 19 20 21 22 23 24 25 26 27 28 29 30 31 32 33 34 35 36 37 38 39 40 41 42 43 44 45 46 47 48 49 50
000
ASUS43 KLSX 272259
RWRMO

WEATHER SUMMARY FOR MISSOURI
NATIONAL WEATHER SERVICE SPRINGFIELD MO
600 PM CDT FRI MAR 27 2015

NOTE: "FAIR" INDICATES FEW OR NO CLOUDS BELOW 12,000 FEET WITH NO
       SIGNIFICANT WEATHER AND/OR OBSTRUCTIONS TO VISIBILITY.
       CURRENT SKY AND/OR WEATHER CONDITIONS ARE NOT AVAILABLE FOR
       CHILLICOTHE AND FARMINGTON.

MOZ001>031-035>038-043-044-053-054-280000-
...NORTHERN AND WESTERN MISSOURI...

CITY           SKY/WX    TMP DP  RH WIND       PRES   REMARKS
KANSAS CTY INT CLOUDY    42  18  37 NW3       30.15R
KANSAS C DTWN  CLOUDY    44  14  29 N5        30.15S
LEE`S SUMMIT   CLOUDY    42  16  34 N5        30.15R
ST JOSEPH      CLOUDY    42  18  37 W6        30.17R
CHILLICOTHE      N/A     43  17  35 NW3       30.16S
KIRKSVILLE     PTSUNNY   41  15  35 N6        30.13F

$$
MOZ066>068-077>081-088>096-101>105-280000-
...SOUTHWEST MISSOURI...

CITY           SKY/WX    TMP DP  RH WIND       PRES   REMARKS
SPRINGFIELD    SUNNY     45  19  35 NW7       30.12R
JOPLIN         SUNNY     48  22  35 N7        30.14S

$$
MOZ032>034-039>042-045>050-055>058-069>072-280000-
...CENTRAL MISSOURI...

CITY           SKY/WX    TMP DP  RH WIND       PRES   REMARKS
COLUMBIA       MOSUNNY   42  19  39 E5        30.14S
JEFFERSON CITY MOSUNNY   43  17  35 N8        30.15S
ROLLA          SUNNY     40  19  43 N8        30.12S
SEDALIA        MOSUNNY   43  20  39 N5        30.15S
OSAGE BEACH    SUNNY     45  19  36 N6        30.13F

$$
MOZ051-052-059>065-280000-
...EAST CENTRAL MISSOURI...

CITY           SKY/WX    TMP DP  RH WIND       PRES   REMARKS
ST LOUIS INTL  PTSUNNY   41  19  41 NW10      30.15S
SPIRIT OF STL  MOSUNNY   42  17  36 N8        30.15S
ST CHARLES     PTSUNNY   41  19  41 NW8       30.15S

$$
MOZ072>076-082>087-097>100-106>115-280000-
...SOUTH CENTRAL AND SOUTHEAST MISSOURI...

CITY           SKY/WX    TMP DP  RH WIND       PRES   REMARKS
CAPE GIRARDEAU PTSUNNY   40  23  50 N13       30.15S
FARMINGTON     PTSUNNY   39  21  48 N12       30.16S
POPLAR BLUFF   MOSUNNY   43  23  45 N12       30.14R
WEST PLAINS    SUNNY     45  18  34 N13       30.11S

$$


USA.gov is the U.S. government's official web portal to all federal, state and local government web resources and services.